When you browse on this site, cookies collect data to enhance your experience and personalize the content and advertising you see.
Visit our Privacy Policy to learn more. By continuing to use the site, you agree to this use of cookies and data.
  • In Hungary
  • List of Countries
  • For 7 days
  • Water Temperature
  • Satellite Maps
  • Weather Map
  • News
  • Weather Widgets
  • user-avatar
    Login

    Hourly Weather Bata

    Today, 12 December, Wednesday

    Time Temperature Precipitation Wind Pressure Humidity
    00:00 +27°C° 0.1 mm 2 mps 759 mmHg 96%
    01:00 +27°C° 0.1 mm 2 mps 758 mmHg 96%
    02:00 +27°C° 0.5 mm 2 mps 758 mmHg 96%
    03:00 +26°C° 0.5 mm 2 mps 758 mmHg 97%
    04:00 +26°C° 0.5 mm 2 mps 757 mmHg 97%
    05:00 +26°C° 0.6 mm 2 mps 758 mmHg 96%
    06:00 +27°C° 0.6 mm 2 mps 758 mmHg 96%
    07:00 +27°C° 0.6 mm 2 mps 758 mmHg 95%
    08:00 +29°C° 0.2 mm 1 mps 759 mmHg 87%
    09:00 +31°C° 0.2 mm 1 mps 759 mmHg 79%
    10:00 +33°C° 0.2 mm 1 mps 759 mmHg 71%
    11:00 +33°C° 0.4 mm 1 mps 759 mmHg 70%
    12:00 +34°C° 0.4 mm 2 mps 758 mmHg 68%
    13:00 +34°C° 0.4 mm 2 mps 758 mmHg 67%
    14:00 +34°C° 0.4 mm 2 mps 757 mmHg 69%
    15:00 +33°C° 0.4 mm 3 mps 756 mmHg 71%
    16:00 +33°C° 0.4 mm 3 mps 756 mmHg 73%
    17:00 +30°C° 0.1 mm 2 mps 756 mmHg 79%
    18:00 +29°C° 0.1 mm 2 mps 757 mmHg 84%
    19:00 +28°C° 0.1 mm 2 mps 757 mmHg 90%
    20:00 +28°C° 0.1 mm 2 mps 758 mmHg 91%
    21:00 +28°C° 0.1 mm 2 mps 759 mmHg 91%
    22:00 +27°C° 0.1 mm 2 mps 759 mmHg 92%
    23:00 +27°C° 0 mm 2 mps 759 mmHg 92%

    Tomorrow, 13 December, Thursday

    Time Temperature Precipitation Wind Pressure Humidity
    00:00 +27°C° 0 mm 3 mps 759 mmHg 92%
    01:00 +27°C° 0 mm 3 mps 759 mmHg 92%
    02:00 +27°C° 0 mm 3 mps 758 mmHg 93%
    03:00 +26°C° 0 mm 3 mps 758 mmHg 94%
    04:00 +26°C° 0 mm 2 mps 758 mmHg 95%
    05:00 +26°C° 0 mm 2 mps 758 mmHg 95%
    06:00 +27°C° 0 mm 2 mps 758 mmHg 95%
    07:00 +27°C° 0 mm 2 mps 759 mmHg 95%
    08:00 +29°C° 0 mm 2 mps 759 mmHg 87%
    09:00 +30°C° 0 mm 2 mps 759 mmHg 78%
    10:00 +32°C° 0 mm 2 mps 760 mmHg 70%
    11:00 +34°C° 0.1 mm 2 mps 759 mmHg 67%
    12:00 +34°C° 0.1 mm 2 mps 758 mmHg 64%
    13:00 +35°C° 0.1 mm 3 mps 757 mmHg 61%
    14:00 +34°C° 0.2 mm 3 mps 757 mmHg 65%
    15:00 +33°C° 0.2 mm 3 mps 756 mmHg 69%
    16:00 +33°C° 0.2 mm 3 mps 756 mmHg 73%
    17:00 +31°C° 0.1 mm 3 mps 756 mmHg 79%
    18:00 +29°C° 0.1 mm 2 mps 757 mmHg 85%
    19:00 +28°C° 0.1 mm 2 mps 758 mmHg 91%
    20:00 +28°C° 0.1 mm 2 mps 758 mmHg 91%
    21:00 +28°C° 0.1 mm 2 mps 759 mmHg 92%
    22:00 +28°C° 0.1 mm 2 mps 759 mmHg 92%
    23:00 +28°C° 0.1 mm 3 mps 759 mmHg 92%

    Day after tomorrow, 14 December, Friday

    Time Temperature Precipitation Wind Pressure Humidity
    00:00 +28°C° 0.1 mm 3 mps 758 mmHg 92%
    01:00 +27°C° 0.1 mm 3 mps 758 mmHg 92%
    02:00 +27°C° 0 mm 3 mps 758 mmHg 92%
    03:00 +27°C° 0 mm 3 mps 757 mmHg 93%
    04:00 +27°C° 0 mm 3 mps 757 mmHg 94%
    05:00 +27°C° 0 mm 2 mps 758 mmHg 94%
    06:00 +27°C° 0 mm 2 mps 758 mmHg 94%
    07:00 +27°C° 0 mm 2 mps 759 mmHg 94%
    08:00 +29°C° 0 mm 2 mps 759 mmHg 87%
    09:00 +30°C° 0 mm 2 mps 760 mmHg 81%
    10:00 +31°C° 0 mm 2 mps 760 mmHg 74%
    11:00 +33°C° 0 mm 3 mps 759 mmHg 69%
    12:00 +34°C° 0 mm 3 mps 758 mmHg 64%
    13:00 +35°C° 0 mm 3 mps 757 mmHg 59%
    14:00 +35°C° 0.1 mm 3 mps 757 mmHg 63%
    15:00 +34°C° 0.1 mm 3 mps 756 mmHg 67%
    16:00 +33°C° 0.1 mm 4 mps 756 mmHg 70%
    17:00 +31°C° 0.1 mm 3 mps 756 mmHg 77%
    18:00 +30°C° 0.1 mm 3 mps 757 mmHg 83%
    19:00 +28°C° 0.1 mm 3 mps 758 mmHg 90%
    20:00 +28°C° 0 mm 3 mps 758 mmHg 91%
    21:00 +28°C° 0 mm 3 mps 759 mmHg 92%
    22:00 +27°C° 0 mm 2 mps 759 mmHg 93%
    23:00 +27°C° 0 mm 3 mps 758 mmHg 92%

    15 December, Saturday

    Time Temperature Precipitation Wind Pressure Humidity
    00:00 +27°C° 0 mm 3 mps 758 mmHg 92%
    01:00 +27°C° 0 mm 4 mps 757 mmHg 91%
    02:00 +27°C° 0 mm 3 mps 757 mmHg 93%
    03:00 +26°C° 0 mm 3 mps 757 mmHg 95%
    04:00 +26°C° 0 mm 3 mps 757 mmHg 96%
    05:00 +26°C° 0 mm 2 mps 757 mmHg 96%
    06:00 +27°C° 0 mm 2 mps 758 mmHg 95%
    07:00 +27°C° 0 mm 2 mps 759 mmHg 95%
    08:00 +29°C° 0 mm 2 mps 759 mmHg 87%
    09:00 +30°C° 0 mm 2 mps 759 mmHg 78%
    10:00 +32°C° 0 mm 2 mps 759 mmHg 70%
    11:00 +34°C° 0.1 mm 2 mps 759 mmHg 67%
    12:00 +34°C° 0.1 mm 3 mps 758 mmHg 64%
    13:00 +35°C° 0.1 mm 3 mps 757 mmHg 60%
    14:00 +34°C° 0.3 mm 3 mps 757 mmHg 63%
    15:00 +34°C° 0.3 mm 3 mps 756 mmHg 66%
    16:00 +33°C° 0.3 mm 3 mps 756 mmHg 69%
    17:00 +31°C° 0.1 mm 3 mps 756 mmHg 76%
    18:00 +29°C° 0.1 mm 3 mps 757 mmHg 82%
    19:00 +28°C° 0.1 mm 2 mps 757 mmHg 89%
    20:00 +28°C° 0.1 mm 2 mps 758 mmHg 90%
    21:00 +28°C° 0.1 mm 2 mps 758 mmHg 91%
    22:00 +27°C° 0.1 mm 2 mps 759 mmHg 93%
    23:00 +27°C° 0.1 mm 2 mps 758 mmHg 93%

    16 December, Sunday

    Time Temperature Precipitation Wind Pressure Humidity
    00:00 +27°C° 0.1 mm 3 mps 758 mmHg 92%
    01:00 +27°C° 0.1 mm 3 mps 758 mmHg 92%
    02:00 +27°C° 0 mm 3 mps 758 mmHg 93%
    03:00 +27°C° 0 mm 3 mps 757 mmHg 94%
    04:00 +26°C° 0 mm 3 mps 757 mmHg 96%
    05:00 +27°C° 0 mm 3 mps 758 mmHg 95%
    06:00 +27°C° 0 mm 3 mps 758 mmHg 95%
    07:00 +27°C° 0 mm 3 mps 759 mmHg 95%
    08:00 +29°C° 0 mm 3 mps 759 mmHg 85%
    09:00 +30°C° 0 mm 3 mps 759 mmHg 76%
    10:00 +33°C° 0 mm 3 mps 759 mmHg 66%
    11:00 +34°C° 0.3 mm 3 mps 759 mmHg 64%
    12:00 +34°C° 0.3 mm 3 mps 758 mmHg 62%
    13:00 +35°C° 0.3 mm 3 mps 757 mmHg 60%
    14:00 +34°C° 0.2 mm 3 mps 757 mmHg 62%
    15:00 +34°C° 0.2 mm 3 mps 756 mmHg 65%
    16:00 +33°C° 0.2 mm 3 mps 756 mmHg 68%
    17:00 +31°C° 0.1 mm 3 mps 756 mmHg 74%
    18:00 +30°C° 0.1 mm 3 mps 757 mmHg 81%
    19:00 +28°C° 0.1 mm 2 mps 758 mmHg 88%
    20:00 +28°C° 0.1 mm 2 mps 758 mmHg 89%
    21:00 +28°C° 0.1 mm 2 mps 759 mmHg 90%
    22:00 +28°C° 0.1 mm 2 mps 759 mmHg 91%
    23:00 +28°C° 0 mm 2 mps 759 mmHg 90%

    17 December, Monday

    Time Temperature Precipitation Wind Pressure Humidity
    00:00 +28°C° 0 mm 3 mps 758 mmHg 89%
    01:00 +28°C° 0 mm 3 mps 758 mmHg 88%
    02:00 +27°C° 0 mm 3 mps 758 mmHg 89%
    03:00 +27°C° 0 mm 3 mps 758 mmHg 91%
    04:00 +27°C° 0 mm 3 mps 757 mmHg 93%
    05:00 +27°C° 0.1 mm 3 mps 758 mmHg 93%
    06:00 +27°C° 0.1 mm 2 mps 758 mmHg 93%
    07:00 +27°C° 0 mm 2 mps 759 mmHg 94%
    08:00 +29°C° 0.2 mm 2 mps 759 mmHg 84%
    09:00 +31°C° 0.2 mm 2 mps 759 mmHg 75%
    10:00 +34°C° 0.2 mm 2 mps 759 mmHg 65%
    11:00 +34°C° 0.3 mm 2 mps 759 mmHg 63%
    12:00 +35°C° 0.3 mm 2 mps 758 mmHg 60%
    13:00 +35°C° 0.3 mm 3 mps 757 mmHg 58%
    14:00 +35°C° 0.2 mm 3 mps 757 mmHg 61%
    15:00 +34°C° 0.2 mm 3 mps 756 mmHg 63%
    16:00 +33°C° 0.2 mm 3 mps 756 mmHg 66%
    17:00 +31°C° 0 mm 3 mps 756 mmHg 72%
    18:00 +30°C° 0 mm 2 mps 757 mmHg 79%
    19:00 +28°C° 0 mm 2 mps 757 mmHg 86%
    20:00 +28°C° 0.1 mm 2 mps 758 mmHg 87%
    21:00 +28°C° 0.1 mm 2 mps 758 mmHg 89%
    22:00 +27°C° 0.1 mm 2 mps 759 mmHg 91%
    23:00 +27°C° 0.1 mm 2 mps 758 mmHg 91%
    Show more